Location: Mahannah Oil Field
(37.4664°N, 96.6003°W)
Time: 00:30:55
(UTC+00:00)

deb Explorer IX - Pass Details

Date: 30 January 2021
Orbit: 538 x 1101 km, 38.8° (Epoch: 06 March)

Event Time Altitude Azimuth Distance (km) Brightness Sun altitude
Rises 00:38:55 0° 277° (W) 3,801 ? -10.5°
Reaches altitude 10° 00:41:46 10° 278° (W) 2,786 ? -11.0°
Maximum altitude 00:48:32 82° 7° (N) 922 ? -12.3°
Enters shadow 00:53:08 17° 94° (E) 1,982 ? -13.2°
